Probability
0 0 0 0 0 0 0 0 0 0 0 0 0 0 0 0 0 0 0 0 0 0 0 0 0 0 0 0 0 0 0 0 0 0 0 0 0 0 0 0 0 0 0
0 0 0 0 0 0 0 0 0 0 0 0 0 0 0 0 0 0 0 0 0 0 0 0 0 0 0 0 0 0 0 0 0 0 0 0 0 0 0 0 0 0 0
0 0 0 0 0 0 0 0 0 0 0 0 0 0 0 0 0 0 0 0 0 0 0 0 0 0 0 0 0 0 0 0 0 0 0 0 0 0 0 0 0 0 0
0 0 0 0 0 0 0 0 0 0 0 0 0 0 0 0 0 0 0 0 0 0 0 0 0 0 0 0 0 0 0 0 0 0 0 0 0 0 0 0 0 0 0
0 0 0 0 0 0 0 0 0 0 0 0 0 0 0 0 0 0 0 0 0 0 0 0 0 0 0 0 0 0 0 0 0 0 0 0 0 0 0 0 0 0 0
0 0 0 0 0 0 0 0 0 0 0 0 0 0 0 0 0 0 0 0 0 0 0 0 0 0 0 0 0 0 0 0 0 0 0 0 0 0 0 0 0 0 0
0 0 0 0 0 0 0 0 0 0 0 0 0 0 0 0 0 0 0 0 0 0 0 0 0 0 0 0 0 0 0 0 0 0 0 0 0 0 0 0 0 0 0
0 0 0 0 0 0 0 0 0 0 0 0 0 0 0 0 0 0 0 0 0 0 0 0 0 0 0 0 0 0 0 0 0 0 0 0 0 0 0 0 0 0 0
0 0 0 0 0 0 0 0 0 0 0 0 0 0 0 0 0 0 0 0 0 0 0 0 0 0 0 0 0 0 0 0 0 0 0 0 0 0 0 0 0 0 0
0 0 0 0 0 0 0 0 0 0 0 0 0 0 0 0 0 0 0 0 0 0 0 0 0 0 0 0 0 0 0 0 0 0 0 0 0 0 0 0 0 0 0
0 0 0 0 0 0 0 0 0 0 0 0 0 0 0 0 0 0 0 0 0 0 0 0 0 0 0 0 0 0 0 0 0 0 0 0 0 0 0 0 0 0 0
0 0 0 0 0 0 0 0 0 0 0 0 0 0 0 0 0 0 0 0 0 0 0 0 0 0 0 0 0 0 0 0 0 0 0 0 0 0 0 0 0 0 0
0 0 0 0 0 0 0 0 0 0 0 0 0 0 0 0 0 0 0 0 0 0 0 0 0 0 0 0 0 0 0 0 0 0 0 0 0 0 0 0 0 0 0
0 0 0 0 0 0 0 0 0 0 0 0 0 0 0 0 0 0 0 0 0 0 0 0 0 0 0 0 0 0 0 0 0 0 0 0 0 0 0 0 0 0 0
0 0 0 0 0 0 0 0 0 0 0 0 0 0 0 0 0 0 0 0 0 0 0 0 0 0 0 0 0 0 0 0 0 0 0 0 0 0 0 0 0 0 0
0 0 0 0 0 0 0 0 0 0 0 0 0 0 0 0 0 0 0 0 0 0 0 0 0 0 0 0 0 0 0 0 0 0 0 0 0 0 0 0 0 0 0
0 0 0 0 0 0 0 0 0 0 0 0 0 0 0 0 0 0 0 0 0 0 0 0 0 0 0 0 0 0 0 0 0 0 0 0 0 0 0 0 0 0 0
0 0 0 0 0 0 0 0 0 0 0 0 0 0 0 0 0 0 0 0 0 0 0 0 0 0 0 0 0 0 0 0 0 0 0 0 0 0 0 0 0 0 0
0 0 0 0 0 0 0 0 0 0 0 0 0 0 0 0 0 0 0 0 0 0 0 0 0 0 0 0 0 0 0 0 0 0 0 0 0 0 0 0 0 0 0
0 0 0 0 0 0 0 0 0 0 0 0 0 0 0 0 0 0 0 0 0 0 0 0 0 0 0 0 0 0 0 0 0 0 0 0 0 0 0 0 0 0 0
0 0 0 0 0 0 0 0 0 0 0 0 0 0 0 0 0 0 0 0 0 0 0 0 0 0 0 0 0 0 0 0 0 0 0 0 0 0 0 0 0 0 0
0 0 0 0 0 0 0 0 0 0 0 0 0 0 0 0 0 0 0 0 0 0 0 0 0 0 0 0 0 0 0 0 0 0 0 0 0 0 0 0 0 0 0
0 0 0 0 0 0 0 0 0 0 0 0 0 0 0 0 0 0 0 0 0 0 0 0 0 0 0 0 0 0 0 0 0 0 0 0 0 0 0 0 0 0 0
0 0 0 0 0 0 0 0 0 0 0 0 0 0 0 0 0 0 0 0 0 0 0 0 0 0 0 0 0 0 0 0 0 0 0 0 0 0 0 0 0 0 0
0 0 0 0 0 0 0 0 0 0 0 0 0 0 0 0 0 0 0 0 0 0 0 0 0 0 0 0 0 0 0 0 0 0 0 0 0 0 0 0 0 0 0
0 0 0 0 0 0 0 0 0 0 0 0 0 0 0 0 0 0 0 0 0 0 0 0 0 0 0 0 0 0 0 0 0 0 0 0 0 0 0 0 0 0 0
Wind_Speed
1 1 1 1 0 0 0 0 0 0 0 1 1 1 2 2 2 3 2 2 3 4 4 4 5 4 4 3 3 3 4 4 6 5 4 4 5 6 5 5 5 5 5
1 1 1 1 0 0 0 0 1 1 1 1 2 2 2 3 3 3 4 3 4 4 4 5 5 4 5 4 4 5 5 5 6 7 6 5 6 6 6 6 5 4 5
1 1 1 1 1 1 1 1 1 1 1 2 2 2 3 3 3 4 4 4 4 5 5 5 5 5 6 5 5 5 4 4 5 6 6 5 5 4 5 5 5 5 5
2 2 2 1 2 1 1 1 1 2 2 2 2 3 3 4 4 4 4 4 5 5 5 5 6 6 6 6 5 6 5 5 5 5 5 5 4 4 4 4 5 5 5
2 2 2 2 2 2 2 2 2 2 3 3 3 3 4 4 4 4 4 5 5 5 5 5 6 7 8 7 6 6 6 5 5 5 5 5 5 4 4 4 5 5 5
3 2 2 2 2 2 2 2 2 3 3 3 3 4 4 3 5 6 6 5 5 6 6 6 6 7 8 10 10 10 9 7 7 6 6 7 7 6 5 5 5 5 5
3 3 3 2 2 2 2 2 3 3 3 3 4 4 4 4 6 7 7 6 6 6 6 6 5 5 7 7 8 9 10 11 10 9 9 8 7 6 6 6 6 6 6
3 3 3 3 3 3 3 3 3 3 3 4 4 5 5 5 6 7 7 6 6 6 6 7 7 7 6 7 7 7 7 7 8 7 8 8 7 6 6 6 6 6 6
4 4 3 3 3 3 3 3 3 3 4 4 4 5 5 6 7 7 7 5 5 6 6 7 7 7 8 8 7 7 7 6 6 8 9 9 9 9 6 4 4 4 5
4 4 4 4 4 4 4 4 3 4 4 4 5 5 6 6 7 7 7 4 5 5 5 6 8 8 8 8 7 6 7 6 5 5 6 7 7 7 8 6 5 5 4
4 4 4 4 4 4 4 4 4 4 4 4 5 5 5 6 7 7 8 5 5 5 5 5 5 8 9 9 8 6 7 6 5 5 5 4 4 4 4 4 4 5 5
4 4 4 4 3 3 4 4 4 4 5 5 4 5 4 5 6 7 8 8 7 6 5 5 5 8 9 9 7 7 7 6 4 4 4 4 4 4 3 4 4 5 5
4 4 4 4 4 4 4 4 4 4 4 4 4 4 4 4 5 8 8 8 8 6 5 7 8 9 8 7 7 7 5 4 3 4 4 4 4 4 3 3 4 4 5
4 4 4 4 3 3 3 4 4 4 4 4 4 4 4 4 4 4 4 5 6 5 5 6 7 7 6 6 6 5 3 3 4 4 4 3 3 3 4 3 3 3 3
4 4 4 4 4 4 4 4 4 5 5 5 5 4 5 5 5 7 6 5 4 4 4 4 4 3 3 3 3 3 3 3 3 3 3 3 3 3 3 3 3 3 4
4 4 4 3 3 3 4 4 6 7 8 9 9 8 7 8 10 9 9 8 7 6 4 4 4 4 4 4 3 3 3 3 3 3 3 3 3 3 3 3 3 3 4
5 4 3 3 4 4 4 4 4 4 7 8 9 9 10 10 10 10 8 7 7 5 4 4 4 4 4 4 4 4 4 3 3 3 4 3 3 3 3 3 3 3 4
5 5 5 4 4 4 4 4 4 4 4 4 5 8 9 9 10 9 8 6 4 4 4 4 4 4 4 4 4 4 3 3 3 3 4 4 4 4 4 4 4 4 4
5 4 4 4 4 4 4 4 4 5 5 5 4 5 7 8 9 8 7 4 4 4 4 4 4 4 4 4 4 4 4 4 4 4 4 4 4 4 4 4 4 5 4
4 6 5 4 4 4 4 4 4 4 5 5 5 4 4 4 4 5 4 4 4 5 5 5 4 4 4 4 4 4 4 4 4 4 4 4 4 4 4 5 4 4 4
4 4 6 5 4 4 4 4 4 5 5 5 5 5 6 5 5 5 5 5 5 5 5 5 4 4 4 4 4 5 5 4 4 4 4 4 4 4 4 4 4 4 3
3 3 3 4 4 4 4 4 5 5 5 6 5 5 7 5 5 5 5 5 5 4 4 5 5 4 4 4 4 4 5 5 4 4 4 4 4 4 4 4 3 3 3
3 3 4 4 4 5 5 5 5 5 5 5 5 5 4 4 5 5 5 5 4 4 4 4 5 4 4 4 4 5 5 5 4 4 4 4 4 4 4 4 4 4 4
3 4 4 4 4 4 4 4 4 5 5 5 5 4 4 4 5 5 5 4 4 4 4 4 4 6 6 5 4 4 4 5 5 4 6 5 4 4 4 4 4 4 4
3 3 3 3 4 4 4 4 4 4 4 4 4 4 4 4 5 5 5 4 5 4 5 5 4 5 6 6 6 5 6 8 7 5 4 4 4 4 4 4 4 4 3
2 3 3 3 3 3 3 4 4 4 4 4 4 4 4 4 4 4 4 4 4 4 4 4 5 5 6 5 6 7 8 8 7 7 4 3 4 4 4 4 4 4 4
Wind_Direction
191 175 170 166 114 90 94 12 332 346 299 285 283 293 284 280 274 250 239 235 237 238 236 241 246 250 250 249 251 249 251 252 265 280 282 277 272 277 283 283 286 285 281
210 188 176 173 164 181 358 338 313 302 300 294 285 278 278 271 269 258 249 243 242 244 245 246 247 248 248 250 248 249 251 252 259 273 281 284 279 277 281 284 287 283 281
210 201 194 203 223 246 274 290 282 285 289 285 283 278 278 272 269 258 256 254 250 247 250 251 250 248 250 251 251 253 255 257 257 265 275 282 282 278 284 285 287 286 285
200 205 213 233 248 255 267 275 281 280 278 278 280 281 279 275 267 261 259 260 257 254 254 254 254 251 252 253 253 255 257 258 258 260 267 275 278 279 278 282 287 286 284
208 209 218 234 245 250 255 263 271 274 278 282 283 282 278 273 265 268 265 263 260 259 259 256 255 258 260 259 258 257 256 256 258 259 263 269 270 270 268 274 278 288 285
221 220 220 228 233 240 248 255 258 264 270 275 275 276 275 273 279 272 272 266 261 258 259 259 258 254 256 258 260 261 259 255 256 258 260 261 266 269 272 270 274 281 281
220 222 224 231 238 245 252 254 259 267 272 271 275 276 276 276 275 271 270 268 262 260 260 261 262 262 261 259 259 259 257 258 259 263 263 264 269 267 265 265 267 273 275
224 228 228 234 246 255 258 262 270 273 273 276 278 277 277 278 278 277 276 268 264 261 260 260 263 264 262 265 263 261 259 258 259 259 264 268 269 270 268 270 273 278 277
227 233 234 235 242 248 255 263 268 269 272 276 278 277 278 282 283 284 280 269 262 263 262 261 262 264 267 268 262 260 264 267 262 264 272 274 274 268 265 267 263 264 274
231 235 234 235 239 245 254 259 262 264 268 273 275 275 277 280 284 284 281 269 267 269 269 266 259 264 270 267 261 257 261 270 274 272 269 265 262 252 247 246 249 256 267
235 235 234 235 239 245 252 254 257 260 267 271 275 276 277 281 284 284 280 273 270 272 271 270 267 267 269 271 270 262 270 280 273 270 270 268 265 256 253 256 252 252 258
226 229 231 233 235 240 245 251 253 257 264 269 273 279 280 282 282 283 282 279 282 274 271 272 271 269 269 269 268 271 277 276 268 266 265 263 263 264 265 268 270 270 267
223 229 231 232 235 238 243 249 252 253 259 267 270 277 282 284 284 284 282 281 281 279 278 281 281 278 277 269 266 269 266 261 259 261 263 269 276 276 276 277 277 272 274
221 226 229 230 234 236 241 245 249 250 256 262 266 274 279 280 280 285 281 278 277 278 281 281 280 278 275 274 270 259 253 256 261 263 268 275 280 273 267 268 270 271 277
221 225 228 231 236 240 242 247 251 252 257 261 264 268 274 277 283 294 295 290 289 288 292 282 278 277 271 270 268 265 262 258 262 266 267 270 268 266 269 271 267 266 264
218 223 225 227 232 240 247 254 250 254 267 267 270 273 276 279 290 290 291 293 296 297 286 273 271 270 272 272 269 268 264 261 265 266 264 264 264 266 270 269 264 262 264
223 226 227 229 232 239 245 252 263 257 254 261 267 272 274 283 288 288 287 286 282 282 272 271 269 267 270 269 267 266 267 270 269 263 263 264 265 266 265 266 264 265 267
224 227 230 233 235 239 243 249 254 263 269 267 265 268 274 278 281 287 286 283 269 260 263 266 267 268 267 266 265 265 266 266 262 261 263 263 261 261 262 262 259 261 268
220 221 224 232 236 240 244 249 252 256 262 270 273 268 271 275 274 273 272 262 262 263 263 264 264 264 264 263 263 263 262 261 261 262 261 258 258 258 260 261 260 259 264
223 227 229 231 233 237 241 246 250 254 258 261 264 269 275 273 266 264 257 256 257 260 262 263 263 261 261 261 259 257 256 256 254 254 257 258 258 257 259 261 258 257 260
221 220 227 232 232 236 240 244 248 252 255 259 262 266 268 265 266 267 263 260 260 262 264 264 262 261 258 258 257 254 252 252 251 251 253 255 256 258 261 262 259 258 261
219 221 224 232 235 237 242 245 248 250 254 258 264 265 264 261 262 262 263 265 266 265 266 266 262 259 255 255 255 255 252 250 249 249 251 253 254 254 257 257 256 257 253
215 220 226 233 238 244 248 246 246 248 252 256 260 260 256 257 260 262 265 267 268 267 265 262 262 262 258 255 255 252 250 249 248 248 250 250 252 254 255 255 252 253 251
215 221 229 235 238 240 245 248 248 249 252 254 254 254 256 260 263 265 266 266 266 266 264 262 260 264 266 265 261 256 254 256 252 244 245 248 252 255 257 253 249 247 246
221 227 234 238 241 245 248 248 249 250 251 253 254 257 260 262 265 267 267 265 266 266 267 267 263 261 264 268 267 263 261 264 263 255 246 243 243 245 248 249 243 242 241
229 236 243 245 246 247 249 251 253 255 257 257 256 257 259 261 264 268 269 267 268 270 269 266 265 268 271 269 265 266 268 266 263 261 253 241 238 240 241 240 235 235 233